Weather in Yuryevo

Russia / Kirov Oblast     58°26′48″N   48°32′46″E
temp.,
°C
wind,
m/s
gust,
m/s
humid.,
%
clouds,
%
prec.,
mm/h
press.,
hPa
HPBL,
m
4 march, thu
thu400:00−7sw379699 0.3 998186
03:00−7sw3697100 0.3 996143
06:00−4sw4996100 0.2 992299
09:00−3sw71294100 0.9 990729
12:00−1ssw5997100 1.4 986622
15:000ssw4797100 3.9 984531
18:00−2nw81395100 4.8 986777
21:00−7nw71487100 4.9 991723
5 march, fri
fri500:00−11nw5129097 0.0 994364
03:00−16nw479249 0.0 997106
06:00−18wnw34930 0.0 100045
09:00−14wsw34919 0.0 1001176
12:00−9wsw479395 0.1 1001446
15:00−7w588698 0.2 10031004
18:00−10wnw3696100 0.2 1004149
21:00−16nw349486 0.3 100761
6 march, sat
sat600:00−19nw23970 0.0 100821
03:00−21wnw33973 0.0 101026
06:00−22wnw339815 0.0 101132
09:00−19wnw24948 0.0 1012206
12:00−14w348578 0.0 1012491
15:00−13w458589 0.1 1011805
18:00−16w2395100 0.1 101130
21:00−20wnw239693 0.1 101120
7 march, sun
sun700:00−21wsw239845 0.0 101020
03:00−22sw2310054 0.0 101020
06:00−22s3310060 0.0 100832
09:00−17s479775 0.0 1006247
12:00−12sse61093100 0.0 1003444
15:00−9sse71293100 0.2 1001728
18:00−9sse61294100 0.8 998785
21:00−9sse61394100 1.4 994660
8 march, mon
mon800:00−8se51195100 0.8 991610
03:00−7se4995100 1.9 990482
06:00−8s1396100 1.3 991164
09:00−10w6994100 1.9 993482
12:00−8w4687100 0.2 995538
15:00−8wsw3485100 0.3 997515
18:00−13wsw128995 0.0 99921
21:00−13nnw229481 0.1 100221